Miscellaneous Local Product
Issued by NWS Hastings, NE

Home | Current Version | Previous Version | Text Only | Print | Product List | Glossary Off
Versions: 1 2 3 4 5 6 7 8 9 10 11 12 13 14 15 16 17 18 19 20 21 22 23 24 25 26 27 28 29 30 31 32 33 34 35 36 37 38 39 40 41 42 43 44 45 46 47 48 49 50

000
AXUS43 KGID 290702
MISGRI

GID CWA HOURLY WEATHER ROUNDUP
NATIONAL WEATHER SERVICE HASTINGS NE
200 AM CDT MON MAY 29 2017

NOTE: "FAIR" INDICATES FEW OR NO CLOUDS BELOW 12,000 FEET WITH NO
SIGNIFICANT WEATHER AND/OR OBSTRUCTIONS TO VISIBILITY.

...SOUTH CENTRAL NEBRASKA...

CITY           SKY/WX    TMP DP  RH WIND       PRES   REMARKS
GRAND ISLAND   CLEAR     56  48  74 NW12      29.98S
HASTINGS       CLEAR     58  45  62 W10       30.00R
KEARNEY        CLEAR     55  45  67 NW8       30.02S
ORD            CLEAR     50  44  80 NW7       29.97F
YORK           CLEAR     57  45  62 NW9       29.95S
AURORA         CLEAR     57  46  65 W10       29.97S
LEXINGTON      CLEAR     51  47  86 W8        30.04S
HOLDREGE       CLEAR     55  46  69 W7        30.03S
HEBRON         CLEAR     59  50  72 W3        29.96R

...NEBRASKA PANHANDLE...

CITY           SKY/WX    TMP DP  RH WIND       PRES   REMARKS
CHADRON        CLEAR     52  45  77 W14       30.13R
ALLIANCE       CLEAR     48  45  89 W12       30.14S
SCOTTSBLUFF    CLOUDY    48  44  86 NW6       30.18F
SIDNEY         CLEAR     45  42  89 W7        30.20S

...WESTERN AND NORTH CENTRAL NEBRASKA...

CITY           SKY/WX    TMP DP  RH WIND       PRES   REMARKS
VALENTINE      CLEAR     53  46  77 NW12      30.03R
AINSWORTH      CLEAR     53  48  85 W10       30.02R
ONEILL         CLEAR     55  45  67 NW13      29.97S
BROKEN BOW     PTCLDY    57  45  64 NW16      30.01S
IMPERIAL       CLEAR     51  45  79 W10       30.13S
NORTH PLATTE   CLEAR     48  45  89 W7        30.07S
MCCOOK         CLEAR     52  47  83 SW8       30.08F

...EASTERN NEBRASKA...

CITY           SKY/WX    TMP DP  RH WIND       PRES   REMARKS
NORFOLK        CLEAR     60  43  53 NW12      29.91S
SO SIOUX CITY  CLEAR     54  47  77 N7        29.89R
TEKAMAH        CLEAR     64  41  42 NW13      29.87S
ALBION         PTCLDY    59  44  58 NW10      29.95S
OMAHA EPPLEY   PTCLDY    60  44  55 N5        29.88R
OFFUTT AFB     CLEAR     55  46  71 W6        29.87R
MILLARD        CLEAR     58  49  72 CALM      29.89R
LINCOLN        CLEAR     61  44  53 CALM      29.93R
NEBRASKA CITY  CLEAR     59  42  53 W9        29.89S
BEATRICE       CLEAR     56  48  72 CALM      29.93R
FALLS CITY     CLEAR     57  46  66 SW5       29.90S

...NORTHERN KANSAS...

CITY           SKY/WX    TMP DP  RH WIND       PRES   REMARKS
GOODLAND       CLOUDY    51  47  86 NW8       30.15F
HILL CITY      PTCLDY    56  51  84 N8        30.07R
NORTON         SUNNY     54  46  76 W8        30.05S
PHILLIPSBURG   CLEAR     55  50  82 W9        30.04R
SMITH CENTER   CLEAR     55  48  76 NW7       30.02R
HAYS           CLEAR     56  52  86 W3        30.03R
RUSSELL        CLEAR     58  52  80 W5        30.01R
CONCORDIA      CLEAR     59  52  77 W9        29.98R
SALINA         CLEAR     58  53  84 S6        30.00R
TOPEKA         PTCLDY    59  56  89 CALM      29.96R



USA.gov is the U.S. government's official web portal to all federal, state and local government web resources and services.